| time (UTC) | temp F | wind direction | speed MPH | gust MPH | rain 1hr in | rain 24hr in | rain mn in | humidity % | barometer mb |
| 20260509071522 | 59 | 1.0 | 5.0 | 0.00 | 0.00 | 0.00 | 87 | 1026.4 | |
| 20260509070021 | 59 | 0.0 | 3.0 | 0.00 | 0.00 | 0.00 | 86 | 1026.3 | |
| 20260509064519 | 60 | 0.0 | 3.0 | 0.00 | 0.00 | 0.00 | 85 | 1026.1 | |
| 20260509063026 | 61 | 0.0 | 6.0 | 0.00 | 0.00 | 0.00 | 83 | 1026.1 | |
| 20260509061517 | 62 | 1.0 | 4.0 | 0.00 | 0.00 | 0.00 | 81 | 1026.0 | |
| 20260509060019 | 62 | 0.0 | 4.0 | 0.00 | 0.00 | 0.00 | 80 | 1025.9 | |
| 20260509054515 | 63 | 0.0 | 2.0 | 0.00 | 0.00 | 0.00 | 78 | 1025.9 | |
| 20260509053015 | 63 | 2.0 | 6.0 | 0.00 | 0.00 | 0.00 | 76 | 1025.8 | |
| 20260509051514 | 64 | 1.0 | 4.0 | 0.00 | 0.00 | 0.00 | 74 | 1025.8 | |
| 20260509050012 | 64 | 0.0 | 3.0 | 0.00 | 0.00 | 0.00 | 73 | 1025.8 | |
| 20260509044511 | 65 | 0.0 | 2.0 | 0.00 | 0.00 | 0.00 | 71 | 1026.0 | |
| 20260509043009 | 65 | 0.0 | 4.0 | 0.00 | 0.00 | 0.00 | 69 | 1026.0 | |
| 20260509041508 | 64 | 0.0 | 3.0 | 0.00 | 0.00 | 0.00 | 71 | 1026.0 | |
| 20260509040007 | 65 | 0.0 | 3.0 | 0.00 | 0.00 | 0.00 | 70 | 1026.1 | |
| 20260509034504 | 64 | 0.0 | 2.0 | 0.00 | 0.00 | 0.00 | 71 | 1026.2 | |
| 20260509033002 | 63 | 0.0 | 4.0 | 0.00 | 0.00 | 0.00 | 74 | 1026.3 | |
| 20260509031501 | 63 | 0.0 | 4.0 | 0.00 | 0.00 | 0.00 | 75 | 1026.4 | |
| 20260509030101 | 63 | 1.0 | 3.0 | 0.00 | 0.00 | 0.00 | 75 | 1026.6 | |
| 20260509024600 | 62 | 0.0 | 5.0 | 0.00 | 0.00 | 0.00 | 76 | 1026.8 | |
| 20260509023108 | 61 | 0.0 | 3.0 | 0.00 | 0.00 | 0.00 | 79 | 1027.0 | |
| 20260509021553 | 60 | 0.0 | 2.0 | 0.00 | 0.00 | 0.00 | 84 | 1027.3 | |
| 20260509020055 | 58 | 0.0 | 4.0 | 0.00 | 0.00 | 0.00 | 94 | 1027.5 | |
| 20260509014544 | 57 | 0.0 | 2.0 | 0.00 | 0.00 | 0.00 | 96 | 1027.6 | |
| 20260509013046 | 56 | 1.0 | 3.0 | 0.00 | 0.00 | 0.00 | 96 | 1027.6 | |
| 20260509011543 | 56 | 0.0 | 4.0 | 0.00 | 0.00 | 0.00 | 96 | 1027.7 | |
| 20260509010043 | 56 | 0.0 | 4.0 | 0.00 | 0.00 | 0.00 | 97 | 1027.7 | |
| 20260509004542 | 55 | 1.0 | 5.0 | 0.00 | 0.01 | 0.00 | 97 | 1027.7 | |
| 20260509003037 | 54 | 1.0 | 5.0 | 0.00 | 0.01 | 0.00 | 96 | 1027.7 | |
| 20260509001536 | 54 | 0.0 | 2.0 | 0.00 | 0.01 | 0.00 | 97 | 1027.7 | |
| 20260509000035 | 54 | 0.0 | 3.0 | 0.00 | 0.01 | 0.00 | 97 | 1027.9 | |
| 20260508234533 | 54 | 0.0 | 3.0 | 0.00 | 0.01 | 0.00 | 97 | 1027.8 | |
| 20260508233029 | 52 | 0.0 | 3.0 | 0.00 | 0.01 | 0.00 | 97 | 1027.7 | |
| 20260508231527 | 52 | 0.0 | 3.0 | 0.00 | 0.01 | 0.00 | 97 | 1027.5 | |
| 20260508230037 | 51 | 0.0 | 3.0 | 0.00 | 0.01 | 0.00 | 97 | 1027.3 | |
| 20260508224526 | 51 | 0.0 | 2.0 | 0.00 | 0.01 | 0.00 | 97 | 1027.4 | |
| 20260508223026 | 50 | 1.0 | 4.0 | 0.00 | 0.01 | 0.00 | 97 | 1027.3 | |
| 20260508221518 | 50 | 0.0 | 4.0 | 0.00 | 0.01 | 0.00 | 97 | 1027.2 | |
| 20260508220024 | 50 | 0.0 | 1.0 | 0.00 | 0.01 | 0.00 | 97 | 1027.1 | |
| 20260508214525 | 50 | 0.0 | 2.0 | 0.00 | 0.01 | 0.00 | 97 | 1026.9 | |
| 20260508213014 | 49 | 0.0 | 1.0 | 0.00 | 0.01 | 0.00 | 97 | 1026.8 | |
| 20260508211524 | 49 | 0.0 | 3.0 | 0.00 | 0.01 | 0.00 | 97 | 1026.7 | |
| 20260508210011 | 49 | 0.0 | 1.0 | 0.00 | 0.01 | 0.00 | 97 | 1026.6 | |
| 20260508204509 | 50 | 0.0 | 2.0 | 0.00 | 0.01 | 0.00 | 97 | 1026.5 | |
| 20260508203007 | 50 | 0.0 | 2.0 | 0.00 | 0.01 | 0.00 | 97 | 1026.4 | |
| 20260508201506 | 50 | 0.0 | 2.0 | 0.00 | 0.01 | 0.00 | 97 | 1026.3 | |
| 20260508200004 | 50 | 0.0 | 1.0 | 0.00 | 0.01 | 0.00 | 97 | 1026.1 | |
| 20260508194505 | 50 | 0.0 | 1.0 | 0.00 | 0.01 | 0.00 | 97 | 1025.8 | |
| 20260508193001 | 50 | 0.0 | 1.0 | 0.00 | 0.01 | 0.00 | 97 | 1025.8 | |
| 20260508191605 | 49 | 0.0 | 1.0 | 0.00 | 0.01 | 0.00 | 97 | 1025.8 | |
| 20260508190059 | 49 | 0.0 | 0.0 | 0.00 | 0.01 | 0.00 | 97 | 1025.6 | |
| 20260508184606 | 50 | 0.0 | 1.0 | 0.00 | 0.01 | 0.00 | 96 | 1025.5 | |
| 20260508183124 | 50 | 0.0 | 1.0 | 0.00 | 0.01 | 0.00 | 97 | 1025.4 | |
| 20260508181605 | 50 | 0.0 | 0.0 | 0.00 | 0.01 | 0.00 | 96 | 1025.3 | |
| 20260508180053 | 50 | 0.0 | 1.0 | 0.00 | 0.01 | 0.00 | 97 | 1025.2 | |
| 20260508174555 | 50 | 0.0 | 0.0 | 0.00 | 0.01 | 0.00 | 97 | 1025.1 | |
| 20260508173050 | 50 | 0.0 | 1.0 | 0.00 | 0.01 | 0.00 | 96 | 1025.0 | |
| 20260508171549 | 50 | 0.0 | 1.0 | 0.00 | 0.01 | 0.00 | 96 | 1025.1 | |
| 20260508170055 | 50 | 0.0 | 1.0 | 0.00 | 0.01 | 0.00 | 96 | 1025.2 | |
| 20260508164549 | 50 | 0.0 | 0.0 | 0.00 | 0.01 | 0.00 | 96 | 1025.1 | |
| 20260508163047 | 50 | 0.0 | 0.0 | 0.00 | 0.01 | 0.00 | 96 | 1025.0 | |
| 20260508161547 | 51 | 0.0 | 1.0 | 0.00 | 0.01 | 0.00 | 96 | 1025.1 | |
| 20260508160045 | 51 | 0.0 | 1.0 | 0.00 | 0.01 | 0.00 | 96 | 1025.0 | |
| 20260508154605 | 50 | 0.0 | 2.0 | 0.00 | 0.01 | 0.00 | 96 | 1025.1 | |
| 20260508153046 | 50 | 0.0 | 1.0 | 0.00 | 0.01 | 0.00 | 96 | 1025.0 | |
| 20260508151543 | 50 | 0.0 | 2.0 | 0.00 | 0.01 | 0.00 | 96 | 1025.0 | |
| 20260508150041 | 50 | 0.0 | 2.0 | 0.00 | 0.01 | 0.00 | 95 | 1024.9 | |
| 20260508144553 | 50 | 0.0 | 2.0 | 0.00 | 0.01 | 0.00 | 95 | 1025.0 | |
| 20260508143037 | 50 | 0.0 | 1.0 | 0.00 | 0.01 | 0.00 | 94 | 1025.1 | |
| 20260508141536 | 50 | 0.0 | 2.0 | 0.00 | 0.01 | 0.00 | 94 | 1025.1 | |
| 20260508140036 | 51 | 0.0 | 3.0 | 0.00 | 0.01 | 0.00 | 94 | 1025.0 | |
| 20260508134539 | 51 | 0.0 | 3.0 | 0.00 | 0.01 | 0.01 | 94 | 1025.1 | |
| 20260508133046 | 51 | 0.0 | 3.0 | 0.00 | 0.01 | 0.01 | 93 | 1025.1 | |
| 20260508131531 | 51 | 0.0 | 4.0 | 0.00 | 0.01 | 0.01 | 92 | 1025.1 | |
| 20260508130033 | 52 | 0.0 | 3.0 | 0.00 | 0.01 | 0.01 | 92 | 1025.2 | |
| 20260508124534 | 52 | 0.0 | 1.0 | 0.00 | 0.01 | 0.01 | 91 | 1025.4 | |
| 20260508123044 | 53 | 0.0 | 1.0 | 0.00 | 0.01 | 0.01 | 90 | 1025.5 | |
| 20260508121531 | 52 | 0.0 | 0.0 | 0.00 | 0.01 | 0.01 | 90 | 1025.5 | |
| 20260508120027 | 52 | 0.0 | 0.0 | 0.00 | 0.01 | 0.01 | 90 | 1025.5 | |
| 20260508114524 | 53 | 0.0 | 0.0 | 0.00 | 0.01 | 0.01 | 89 | 1025.4 | |
| 20260508113024 | 53 | 0.0 | 1.0 | 0.00 | 0.01 | 0.01 | 88 | 1025.3 | |
| 20260508111532 | 53 | 0.0 | 1.0 | 0.00 | 0.01 | 0.01 | 88 | 1025.2 | |
| 20260508110025 | 53 | 0.0 | 1.0 | 0.00 | 0.01 | 0.01 | 88 | 1025.3 | |
| 20260508104521 | 53 | 0.0 | 1.0 | 0.00 | 0.01 | 0.01 | 88 | 1025.2 | |
| 20260508103022 | 53 | 0.0 | 0.0 | 0.00 | 0.01 | 0.01 | 88 | 1025.1 | |
| 20260508101520 | 53 | 0.0 | 1.0 | 0.00 | 0.01 | 0.01 | 88 | 1025.0 | |
| 20260508100021 | 54 | 0.0 | 1.0 | 0.00 | 0.01 | 0.01 | 88 | 1024.7 | |
| 20260508094516 | 54 | 0.0 | 1.0 | 0.00 | 0.01 | 0.01 | 86 | 1024.7 | |
| 20260508093018 | 54 | 0.0 | 1.0 | 0.00 | 0.01 | 0.01 | 85 | 1024.5 | |
| 20260508091514 | 55 | 0.0 | 1.0 | 0.00 | 0.01 | 0.01 | 84 | 1024.4 | |
| 20260508090026 | 55 | 1.0 | 3.0 | 0.00 | 0.01 | 0.01 | 84 | 1024.2 | |
| 20260508084510 | 55 | 0.0 | 2.0 | 0.00 | 0.01 | 0.01 | 84 | 1024.1 | |
| 20260508083009 | 55 | 0.0 | 1.0 | 0.00 | 0.01 | 0.01 | 83 | 1024.0 | |
| 20260508081507 | 55 | 0.0 | 2.0 | 0.00 | 0.01 | 0.01 | 82 | 1023.8 | |
| 20260508080007 | 56 | 0.0 | 1.0 | 0.00 | 0.01 | 0.01 | 80 | 1023.6 | |
| 20260508074503 | 57 | 0.0 | 2.0 | 0.00 | 0.01 | 0.01 | 78 | 1023.4 | |
| 20260508073002 | 58 | 1.0 | 3.0 | 0.00 | 0.01 | 0.01 | 77 | 1023.1 |